星链-2714 (STARLINK-2714 )

导读

STARLINK-2714是美国SpaceX公司星链(Starlink)卫星互联网项目的组网卫星,于2021年5月15日发射升空,属于星链低轨卫星星座的一员。星链计划旨在构建覆盖全球的低轨卫星互联网,为偏远地区提供高速宽带服务,该卫星已成为星座中数千颗在轨卫星之一,助力实现全球网络覆盖,同时也引发了天文观测等领域的相关讨论。

基本信息
目录编号:
48603
目录名称:
STARLINK-2714
国际标识:
2021-041BC
轨道中心:
EARTH
卫星名称:
星链-2714
卫星全名:
星链-2714 (STARLINK-2714 )
卫星状态:
在轨 (已飞行1860 天)
发射日期:
2021-05-15 UTC
国别 :
美国 (US)
星等 :
--
轨道信息
数据来源 国际轨道数据
星历时间: 2026-06-18T06:49:06+0800
16小时前
查看轨道信息
半长轴: 6855.823km
偏心率: 0.0001323
轨道倾角: 53.162°
近地点辐角 91.819°
升交点赤经 8.426°
平近点角 268.296°
近地点: 476.778km
远地点: 478.594km
周期: 94.156分钟
每日圈数: 15.293731
详细信息
固有亮度:
5
最大亮度:
2.5
卫星平台:
Starlink V1.0
覆盖范围:
全球
运营商:
太空探索技术公司
运营商所在国:
美国
制造商(研发单位):
太空探索技术公司
制造商所在国:
美国
使用方式:
暂无
卫星简介
星链(Starlink)计划是由太空探索技术公司(SpaceX)提出的一个巨型低轨卫星互联网星座项目,计划在2019年至2024年间在太空搭建由约1.2万颗卫星组成的“星链”网络,其中1584颗将部署在地球上空550千米处的近地轨道,并从2020年开始工作。该卫星仍在工作。
2D轨道图
3D轨道图
轨道高度分析图
轨道倾角分析图
轨道综合分析图
查看轨道综合分析图